START_TIME,STEP,MOV.,M6,t_acc.,M7,t_acc.,M19,t_acc.,H36,t_acc.
1979-07-11 21:00:27.520 ,0,0,6.,12.0,0.,12.0,0.,12.0,1.,12.0
1979-07-11 21:00:39.520 ,0,0,12.,12.0,0.,12.0,0.,12.0,3.,12.0
1979-07-11 21:00:51.520 ,0,1,7.,12.0,0.,12.0,0.,12.0,0.,12.0
1979-07-11 21:01:03.520 ,0,1,12.,12.0,0.,12.0,0.,12.0,1.,12.0
1979-07-11 21:01:15.520 ,0,0,15.,12.0,0.,12.0,0.,12.0,1.,12.0
1979-07-11 21:01:27.520 ,0,0,8.,12.0,0.,12.0,0.,12.0,3.,12.0
1979-07-11 21:01:39.520 ,1,1,6.,12.0,0.,12.0,0.,12.0,1.,12.0
1979-07-11 21:01:51.520 ,1,1,11.,12.0,0.,12.0,0.,12.0,2.,12.0
1979-07-11 21:02:03.520 ,1,0,8.,12.0,0.,12.0,0.,12.0,0.,12.0
1979-07-11 21:02:15.520 ,1,0,9.,12.0,0.,12.0,0.,12.0,2.,12.0
1979-07-11 21:02:27.520 ,2,1,12.,12.0,0.,12.0,0.,12.0,2.,12.0
1979-07-11 21:02:39.520 ,2,1,9.,12.0,0.,12.0,0.,12.0,2.,12.0
1979-07-11 21:02:51.520 ,2,0,17.,12.0,0.,12.0,0.,12.0,7.,12.0
1979-07-11 21:03:03.520 ,2,0,20.,12.0,0.,12.0,0.,12.0,2.,12.0
1979-07-11 21:03:15.520 ,3,1,8.,12.0,0.,12.0,0.,12.0,1.,12.0
1979-07-11 21:03:27.520 ,3,1,21.,12.0,0.,12.0,0.,12.0,5.,12.0
1979-07-11 21:03:39.520 ,3,0,23.,12.0,0.,12.0,0.,12.0,3.,12.0
1979-07-11 21:03:51.520 ,3,0,15.,12.0,0.,12.0,0.,12.0,0.,12.0
1979-07-11 21:04:03.520 ,4,1,17.,12.0,0.,12.0,0.,12.0,4.,12.0
1979-07-11 21:04:15.520 ,4,1,19.,12.0,0.,12.0,0.,12.0,4.,12.0
1979-07-11 21:04:27.520 ,4,0,23.,12.0,0.,12.0,0.,12.0,4.,12.0
1979-07-11 21:04:39.520 ,4,0,17.,12.0,0.,12.0,0.,12.0,4.,12.0
1979-07-11 21:04:51.520 ,5,1,19.,12.0,0.,12.0,0.,12.0,4.,12.0
1979-07-11 21:05:03.520 ,5,1,15.,12.0,0.,12.0,0.,12.0,3.,12.0
1979-07-11 21:05:15.520 ,5,0,16.,12.0,0.,12.0,0.,12.0,6.,12.0
1979-07-11 21:05:27.520 ,5,0,25.,12.0,0.,12.0,0.,12.0,4.,12.0
1979-07-11 21:05:39.520 ,6,1,18.,12.0,0.,12.0,0.,12.0,3.,12.0
1979-07-11 21:05:51.520 ,6,1,26.,12.0,0.,12.0,0.,12.0,7.,12.0
1979-07-11 21:06:03.520 ,6,0,9.,12.0,0.,12.0,0.,12.0,5.,12.0
1979-07-11 21:06:15.520 ,6,0,11.,12.0,0.,12.0,0.,12.0,4.,12.0
1979-07-11 21:06:27.520 ,7,1,18.,12.0,0.,12.0,0.,12.0,1.,12.0
1979-07-11 21:06:39.520 ,7,1,2.,12.0,0.,12.0,0.,12.0,1.,12.0
1979-07-11 21:06:51.520 ,7,0,0.,12.0,0.,12.0,0.,12.0,0.,12.0
1979-07-11 21:07:03.520 ,7,0,0.,12.0,1.,12.0,0.,12.0,0.,12.0
1979-07-11 21:07:15.520 ,7,1,0.,12.0,0.,12.0,0.,12.0,0.,12.0
1979-07-11 21:07:27.520 ,7,1,0.,12.0,0.,12.0,0.,12.0,0.,12.0
1979-07-11 21:07:39.520 ,7,0,0.,12.0,0.,12.0,0.,12.0,0.,12.0
1979-07-11 21:07:51.520 ,7,0,0.,12.0,0.,12.0,0.,12.0,0.,12.0
1979-07-11 21:08:03.520 ,6,1,0.,12.0,0.,12.0,0.,12.0,0.,12.0
1979-07-11 21:08:15.520 ,6,1,18.,12.0,0.,12.0,0.,12.0,3.,12.0
1979-07-11 21:08:27.520 ,6,0,14.,12.0,0.,12.0,0.,12.0,4.,12.0
1979-07-11 21:08:39.520 ,6,0,16.,12.0,0.,12.0,0.,12.0,4.,12.0
1979-07-11 21:08:51.520 ,5,1,23.,12.0,0.,12.0,0.,12.0,1.,12.0
1979-07-11 21:09:03.520 ,5,1,16.,12.0,0.,12.0,0.,12.0,1.,12.0
1979-07-11 21:09:15.520 ,5,0,20.,12.0,0.,12.0,0.,12.0,3.,12.0
1979-07-11 21:09:27.520 ,5,0,13.,12.0,0.,12.0,0.,12.0,3.,12.0
1979-07-11 21:09:39.520 ,4,1,19.,12.0,0.,12.0,0.,12.0,2.,12.0
1979-07-11 21:09:51.520 ,4,1,19.,12.0,0.,12.0,0.,12.0,2.,12.0
1979-07-11 21:10:03.520 ,4,0,17.,12.0,0.,12.0,0.,12.0,6.,12.0
1979-07-11 21:10:15.520 ,4,0,31.,12.0,0.,12.0,0.,12.0,4.,12.0
1979-07-11 21:10:27.520 ,3,1,18.,12.0,0.,12.0,0.,12.0,3.,12.0
1979-07-11 21:10:39.520 ,3,1,21.,12.0,0.,12.0,0.,12.0,4.,12.0
1979-07-11 21:10:51.520 ,3,0,17.,12.0,0.,12.0,0.,12.0,4.,12.0
1979-07-11 21:11:03.520 ,3,0,19.,12.0,0.,12.0,0.,12.0,3.,12.0
1979-07-11 21:11:15.520 ,2,1,19.,12.0,0.,12.0,0.,12.0,3.,12.0
1979-07-11 21:11:27.520 ,2,1,13.,12.0,0.,12.0,0.,12.0,3.,12.0
1979-07-11 21:11:39.520 ,2,0,21.,12.0,0.,12.0,0.,12.0,4.,12.0
1979-07-11 21:11:51.520 ,2,0,9.,12.0,0.,12.0,0.,12.0,1.,12.0
1979-07-11 21:12:03.520 ,1,1,8.,12.0,0.,12.0,0.,12.0,1.,12.0
1979-07-11 21:12:15.520 ,1,1,14.,12.0,0.,12.0,0.,12.0,2.,12.0
1979-07-11 21:12:27.520 ,1,0,14.,12.0,0.,12.0,0.,12.0,5.,12.0
1979-07-11 21:12:39.520 ,1,0,6.,12.0,0.,12.0,0.,12.0,2.,12.0
1979-07-11 21:12:51.520 ,0,1,11.,12.0,0.,12.0,0.,12.0,3.,12.0
1979-07-11 21:13:03.520 ,0,1,13.,12.0,0.,12.0,0.,12.0,1.,12.0
1979-07-11 21:13:15.520 ,0,0,9.,12.0,0.,12.0,0.,12.0,5.,12.0
1979-07-11 21:13:27.520 ,0,0,16.,12.0,0.,12.0,0.,12.0,0.,12.0
1979-07-11 21:13:39.520 ,0,1,12.,12.0,0.,12.0,0.,12.0,0.,12.0
1979-07-11 21:13:51.520 ,0,1,7.,12.0,0.,12.0,0.,12.0,1.,12.0
1979-07-11 21:14:03.520 ,0,0,17.,12.0,0.,12.0,0.,12.0,1.,12.0
1979-07-11 21:14:15.520 ,0,0,6.,12.0,0.,12.0,0.,12.0,0.,12.0
1979-07-11 21:14:27.520 ,1,1,12.,12.0,0.,12.0,0.,12.0,0.,12.0
1979-07-11 21:14:39.520 ,1,1,15.,12.0,0.,12.0,0.,12.0,2.,12.0
1979-07-11 21:14:51.520 ,1,0,9.,12.0,0.,12.0,0.,12.0,1.,12.0
1979-07-11 21:15:03.520 ,1,0,7.,12.0,0.,12.0,0.,12.0,2.,12.0
1979-07-11 21:15:15.520 ,2,1,7.,12.0,0.,12.0,0.,12.0,0.,12.0
1979-07-11 21:15:27.520 ,2,1,8.,12.0,0.,12.0,0.,12.0,5.,12.0
1979-07-11 21:15:39.520 ,2,0,9.,12.0,0.,12.0,0.,12.0,2.,12.0
1979-07-11 21:15:51.520 ,2,0,16.,12.0,0.,12.0,0.,12.0,2.,12.0
1979-07-11 21:16:03.520 ,3,1,10.,12.0,0.,12.0,0.,12.0,5.,12.0
1979-07-11 21:16:15.520 ,3,1,14.,12.0,0.,12.0,0.,12.0,3.,12.0
1979-07-11 21:16:27.520 ,3,0,19.,12.0,0.,12.0,0.,12.0,5.,12.0
1979-07-11 21:16:39.520 ,3,0,14.,12.0,0.,12.0,0.,12.0,2.,12.0
1979-07-11 21:16:51.520 ,4,1,9.,12.0,0.,12.0,0.,12.0,2.,12.0
1979-07-11 21:17:03.520 ,4,1,14.,12.0,0.,12.0,0.,12.0,4.,12.0
1979-07-11 21:17:15.520 ,4,0,21.,12.0,0.,12.0,0.,12.0,4.,12.0
1979-07-11 21:17:27.520 ,4,0,16.,12.0,0.,12.0,0.,12.0,5.,12.0
1979-07-11 21:17:39.520 ,5,1,14.,12.0,0.,12.0,0.,12.0,5.,12.0
1979-07-11 21:17:51.520 ,5,1,10.,12.0,0.,12.0,0.,12.0,2.,12.0
1979-07-11 21:18:03.520 ,5,0,16.,12.0,0.,12.0,0.,12.0,4.,12.0
1979-07-11 21:18:15.520 ,5,0,13.,12.0,0.,12.0,0.,12.0,3.,12.0
1979-07-11 21:18:27.520 ,6,1,13.,12.0,0.,12.0,0.,12.0,5.,12.0
1979-07-11 21:18:39.520 ,6,1,10.,12.0,0.,12.0,0.,12.0,2.,12.0
1979-07-11 21:18:51.520 ,6,0,13.,12.0,0.,12.0,0.,12.0,2.,12.0
1979-07-11 21:19:03.520 ,6,0,11.,12.0,0.,12.0,0.,12.0,2.,12.0
1979-07-11 21:19:15.520 ,7,1,14.,12.0,0.,12.0,0.,12.0,2.,12.0
1979-07-11 21:19:27.520 ,7,1,3.,12.0,0.,12.0,0.,12.0,0.,12.0
1979-07-11 21:19:39.520 ,7,0,0.,12.0,0.,12.0,0.,12.0,0.,12.0
1979-07-11 21:19:51.520 ,7,0,0.,12.0,0.,12.0,0.,12.0,0.,12.0
1979-07-11 21:20:03.520 ,7,1,0.,12.0,0.,12.0,0.,12.0,0.,12.0
1979-07-11 21:20:15.520 ,7,1,0.,12.0,0.,12.0,0.,12.0,0.,12.0
1979-07-11 21:20:27.520 ,7,0,0.,12.0,0.,12.0,0.,12.0,0.,12.0
1979-07-11 21:20:39.520 ,7,0,0.,12.0,0.,12.0,0.,12.0,0.,12.0
1979-07-11 21:20:51.520 ,6,1,0.,12.0,0.,12.0,0.,12.0,0.,12.0
1979-07-11 21:21:03.520 ,6,1,11.,12.0,0.,12.0,0.,12.0,2.,12.0
1979-07-11 21:21:15.520 ,6,0,9.,12.0,0.,12.0,0.,12.0,1.,12.0
1979-07-11 21:21:27.520 ,6,0,10.,12.0,0.,12.0,0.,12.0,1.,12.0
1979-07-11 21:21:39.520 ,5,1,9.,12.0,0.,12.0,0.,12.0,4.,12.0
1979-07-11 21:21:51.520 ,5,1,3.,12.0,0.,12.0,0.,12.0,2.,12.0
1979-07-11 21:22:03.520 ,5,0,7.,12.0,0.,12.0,0.,12.0,2.,12.0
1979-07-11 21:22:15.520 ,5,0,13.,12.0,0.,12.0,0.,12.0,2.,12.0
1979-07-11 21:22:27.520 ,4,1,11.,12.0,0.,12.0,0.,12.0,1.,12.0
1979-07-11 21:22:39.520 ,4,1,12.,12.0,0.,12.0,0.,12.0,1.,12.0
1979-07-11 21:22:51.520 ,4,0,11.,12.0,0.,12.0,0.,12.0,1.,12.0
1979-07-11 21:23:03.520 ,4,0,12.,12.0,0.,12.0,0.,12.0,3.,12.0
1979-07-11 21:23:15.520 ,3,1,20.,12.0,0.,12.0,0.,12.0,1.,12.0
1979-07-11 21:23:27.520 ,3,1,6.,12.0,0.,12.0,0.,12.0,2.,12.0
1979-07-11 21:23:39.520 ,3,0,5.,12.0,0.,12.0,0.,12.0,3.,12.0
1979-07-11 21:23:51.520 ,3,0,8.,12.0,0.,12.0,0.,12.0,2.,12.0
1979-07-11 21:24:03.520 ,2,1,9.,12.0,0.,12.0,0.,12.0,2.,12.0
1979-07-11 21:24:15.520 ,2,1,5.,12.0,0.,12.0,0.,12.0,1.,12.0
1979-07-11 21:24:27.520 ,2,0,8.,12.0,0.,12.0,0.,12.0,0.,12.0
1979-07-11 21:24:39.520 ,2,0,2.,12.0,0.,12.0,0.,12.0,2.,12.0
1979-07-11 21:24:51.520 ,1,1,3.,12.0,0.,12.0,0.,12.0,1.,12.0
1979-07-11 21:25:03.520 ,1,1,7.,12.0,0.,12.0,0.,12.0,1.,12.0
1979-07-11 21:25:15.520 ,1,0,4.,12.0,0.,12.0,0.,12.0,0.,12.0
1979-07-11 21:25:27.520 ,1,0,4.,12.0,0.,12.0,0.,12.0,0.,12.0
1979-07-11 21:25:39.520 ,0,1,4.,12.0,0.,12.0,0.,12.0,0.,12.0
1979-07-11 21:25:51.520 ,0,1,3.,12.0,0.,12.0,0.,12.0,1.,12.0
1979-07-11 21:26:03.520 ,0,0,5.,12.0,0.,12.0,0.,12.0,1.,12.0
1979-07-11 21:26:15.520 ,0,0,4.,12.0,0.,12.0,0.,12.0,1.,12.0
1979-07-11 21:26:27.520 ,0,1,5.,12.0,0.,12.0,0.,12.0,0.,12.0
1979-07-11 21:26:39.520 ,0,1,3.,12.0,0.,12.0,0.,12.0,0.,12.0
1979-07-11 21:26:51.520 ,0,0,9.,12.0,0.,12.0,0.,12.0,0.,12.0
1979-07-11 21:27:03.520 ,0,0,4.,12.0,0.,12.0,0.,12.0,0.,12.0
1979-07-11 21:27:15.520 ,1,1,2.,12.0,0.,12.0,0.,12.0,1.,12.0
1979-07-11 21:27:27.520 ,1,1,4.,12.0,0.,12.0,0.,12.0,0.,12.0
1979-07-11 21:27:39.520 ,1,0,5.,12.0,0.,12.0,0.,12.0,2.,12.0
1979-07-11 21:27:51.520 ,1,0,4.,12.0,0.,12.0,0.,12.0,1.,12.0
1979-07-11 21:28:03.520 ,2,1,3.,12.0,0.,12.0,0.,12.0,2.,12.0
1979-07-11 21:28:15.520 ,2,1,2.,12.0,0.,12.0,0.,12.0,1.,12.0
1979-07-11 21:28:27.520 ,2,0,7.,12.0,0.,12.0,0.,12.0,3.,12.0
1979-07-11 21:28:39.520 ,2,0,7.,12.0,0.,12.0,0.,12.0,2.,12.0
1979-07-11 21:28:51.520 ,3,1,3.,12.0,0.,12.0,0.,12.0,4.,12.0
1979-07-11 21:29:03.520 ,3,1,4.,12.0,0.,12.0,0.,12.0,2.,12.0
1979-07-11 21:29:15.520 ,3,0,12.,12.0,0.,12.0,0.,12.0,3.,12.0
1979-07-11 21:29:27.520 ,3,0,12.,12.0,0.,12.0,0.,12.0,2.,12.0
1979-07-11 21:29:39.520 ,4,1,6.,12.0,0.,12.0,0.,12.0,1.,12.0
1979-07-11 21:29:51.520 ,4,1,8.,12.0,0.,12.0,0.,12.0,2.,12.0
1979-07-11 21:30:03.520 ,4,0,8.,12.0,0.,12.0,0.,12.0,3.,12.0
1979-07-11 21:30:15.520 ,4,0,8.,12.0,0.,12.0,0.,12.0,2.,12.0
1979-07-11 21:30:27.520 ,5,1,10.,12.0,0.,12.0,0.,12.0,1.,12.0
1979-07-11 21:30:39.520 ,5,1,14.,12.0,0.,12.0,0.,12.0,3.,12.0
1979-07-11 21:30:51.520 ,5,0,4.,12.0,0.,12.0,0.,12.0,1.,12.0
1979-07-11 21:31:03.520 ,5,0,9.,12.0,0.,12.0,0.,12.0,2.,12.0
1979-07-11 21:31:15.520 ,6,1,12.,12.0,0.,12.0,0.,12.0,3.,12.0
1979-07-11 21:31:27.520 ,6,1,6.,12.0,0.,12.0,0.,12.0,0.,12.0
1979-07-11 21:31:39.520 ,6,0,7.,12.0,0.,12.0,0.,12.0,4.,12.0
1979-07-11 21:31:51.520 ,6,0,6.,12.0,0.,12.0,0.,12.0,3.,12.0
1979-07-11 21:32:03.520 ,7,1,9.,12.0,0.,12.0,0.,12.0,4.,12.0
1979-07-11 21:32:15.520 ,7,1,3.,12.0,0.,12.0,0.,12.0,1.,12.0
1979-07-11 21:32:27.520 ,7,0,0.,12.0,0.,12.0,0.,12.0,0.,12.0
1979-07-11 21:32:39.520 ,7,0,0.,12.0,0.,12.0,0.,12.0,0.,12.0
1979-07-11 21:32:51.520 ,7,1,0.,12.0,0.,12.0,0.,12.0,0.,12.0
1979-07-11 21:33:03.520 ,7,1,0.,12.0,0.,12.0,0.,12.0,0.,12.0
1979-07-11 21:33:15.520 ,7,0,0.,12.0,0.,12.0,0.,12.0,0.,12.0
1979-07-11 21:33:27.520 ,7,0,0.,12.0,0.,12.0,0.,12.0,0.,12.0
1979-07-11 21:33:39.520 ,6,1,0.,12.0,0.,12.0,0.,12.0,0.,12.0
1979-07-11 21:33:51.520 ,6,1,10.,12.0,0.,12.0,0.,12.0,1.,12.0
1979-07-11 21:34:03.520 ,6,0,9.,12.0,0.,12.0,0.,12.0,2.,12.0
1979-07-11 21:34:15.520 ,6,0,10.,12.0,0.,12.0,0.,12.0,1.,12.0
1979-07-11 21:34:27.520 ,5,1,13.,12.0,0.,12.0,0.,12.0,3.,12.0
1979-07-11 21:34:39.520 ,5,1,13.,12.0,0.,12.0,0.,12.0,2.,12.0
1979-07-11 21:34:51.520 ,5,0,11.,12.0,0.,12.0,0.,12.0,6.,12.0
1979-07-11 21:35:03.520 ,5,0,13.,12.0,0.,12.0,0.,12.0,1.,12.0
1979-07-11 21:35:15.520 ,4,1,11.,12.0,0.,12.0,0.,12.0,1.,12.0
1979-07-11 21:35:27.520 ,4,1,15.,12.0,0.,12.0,0.,12.0,2.,12.0
1979-07-11 21:35:39.520 ,4,0,8.,12.0,0.,12.0,0.,12.0,0.,12.0
1979-07-11 21:35:51.520 ,4,0,9.,12.0,0.,12.0,0.,12.0,2.,12.0
1979-07-11 21:36:03.520 ,3,1,14.,12.0,0.,12.0,0.,12.0,1.,12.0
1979-07-11 21:36:15.520 ,3,1,4.,12.0,0.,12.0,0.,12.0,1.,12.0
1979-07-11 21:36:27.520 ,3,0,5.,12.0,0.,12.0,0.,12.0,0.,12.0
1979-07-11 21:36:39.520 ,3,0,3.,12.0,0.,12.0,0.,12.0,0.,12.0
1979-07-11 21:36:51.520 ,2,1,6.,12.0,0.,12.0,0.,12.0,0.,12.0
1979-07-11 21:37:03.520 ,2,1,1.,12.0,0.,12.0,0.,12.0,0.,12.0
1979-07-11 21:37:15.520 ,2,0,5.,12.0,0.,12.0,0.,12.0,1.,12.0
1979-07-11 21:37:27.520 ,2,0,0.,12.0,0.,12.0,0.,12.0,0.,12.0
1979-07-11 21:37:39.520 ,1,1,2.,12.0,0.,12.0,0.,12.0,1.,12.0
1979-07-11 21:37:51.520 ,1,1,0.,12.0,0.,12.0,0.,12.0,0.,12.0
1979-07-11 21:38:03.520 ,1,0,4.,12.0,0.,12.0,0.,12.0,0.,12.0
1979-07-11 21:38:15.520 ,1,0,1.,12.0,0.,12.0,0.,12.0,0.,12.0
1979-07-11 21:38:27.520 ,0,1,2.,12.0,0.,12.0,0.,12.0,0.,12.0
1979-07-11 21:38:39.520 ,0,1,4.,12.0,0.,12.0,0.,12.0,0.,12.0
1979-07-11 21:38:51.520 ,0,0,1.,12.0,0.,12.0,0.,12.0,0.,12.0
1979-07-11 21:39:03.520 ,0,0,3.,12.0,0.,12.0,0.,12.0,0.,12.0
1979-07-11 21:39:15.520 ,0,1,1.,12.0,0.,12.0,0.,12.0,2.,12.0
1979-07-11 21:39:27.520 ,0,1,3.,12.0,0.,12.0,0.,12.0,0.,12.0
1979-07-11 21:39:39.520 ,0,0,4.,12.0,0.,12.0,0.,12.0,0.,12.0
1979-07-11 21:39:51.520 ,0,0,3.,12.0,0.,12.0,0.,12.0,0.,12.0
1979-07-11 21:40:03.520 ,1,1,5.,12.0,0.,12.0,0.,12.0,0.,12.0
1979-07-11 21:40:15.520 ,1,1,0.,12.0,0.,12.0,0.,12.0,1.,12.0
1979-07-11 21:40:27.520 ,1,0,2.,12.0,0.,12.0,0.,12.0,0.,12.0
1979-07-11 21:40:39.520 ,1,0,4.,12.0,0.,12.0,0.,12.0,0.,12.0
1979-07-11 21:40:51.520 ,2,1,2.,12.0,0.,12.0,0.,12.0,0.,12.0
1979-07-11 21:41:03.520 ,2,1,7.,12.0,0.,12.0,0.,12.0,0.,12.0
1979-07-11 21:41:15.520 ,2,0,3.,12.0,0.,12.0,0.,12.0,1.,12.0
1979-07-11 21:41:27.520 ,2,0,4.,12.0,0.,12.0,0.,12.0,1.,12.0
1979-07-11 21:41:39.520 ,3,1,2.,12.0,0.,12.0,0.,12.0,1.,12.0
1979-07-11 21:41:51.520 ,3,1,5.,12.0,0.,12.0,0.,12.0,1.,12.0
1979-07-11 21:42:03.520 ,3,0,5.,12.0,0.,12.0,0.,12.0,1.,12.0
1979-07-11 21:42:15.520 ,3,0,2.,12.0,0.,12.0,0.,12.0,0.,12.0
1979-07-11 21:42:27.520 ,4,1,2.,12.0,0.,12.0,0.,12.0,2.,12.0
1979-07-11 21:42:39.520 ,4,1,3.,12.0,0.,12.0,0.,12.0,1.,12.0
1979-07-11 21:42:51.520 ,4,0,2.,12.0,0.,12.0,0.,12.0,1.,12.0
1979-07-11 21:43:03.520 ,4,0,5.,12.0,0.,12.0,0.,12.0,0.,12.0
1979-07-11 21:43:15.520 ,5,1,7.,12.0,0.,12.0,0.,12.0,0.,12.0
1979-07-11 21:43:27.520 ,5,1,4.,12.0,0.,12.0,0.,12.0,1.,12.0
1979-07-11 21:43:39.520 ,5,0,2.,12.0,0.,12.0,0.,12.0,2.,12.0
1979-07-11 21:43:51.520 ,5,0,5.,12.0,0.,12.0,0.,12.0,4.,12.0
1979-07-11 21:44:03.520 ,6,1,1.,12.0,0.,12.0,0.,12.0,3.,12.0
1979-07-11 21:44:15.520 ,6,1,5.,12.0,0.,12.0,0.,12.0,2.,12.0
1979-07-11 21:44:27.520 ,6,0,3.,12.0,0.,12.0,0.,12.0,0.,12.0
1979-07-11 21:44:39.520 ,6,0,6.,12.0,0.,12.0,0.,12.0,0.,12.0
1979-07-11 21:44:51.520 ,7,1,3.,12.0,0.,12.0,0.,12.0,1.,12.0
1979-07-11 21:45:03.520 ,7,1,0.,12.0,0.,12.0,0.,12.0,0.,12.0
1979-07-11 21:45:15.520 ,7,0,0.,12.0,0.,12.0,0.,12.0,0.,12.0
1979-07-11 21:45:27.520 ,7,0,0.,12.0,0.,12.0,0.,12.0,0.,12.0
1979-07-11 21:45:39.520 ,7,1,0.,12.0,0.,12.0,0.,12.0,0.,12.0
1979-07-11 21:45:51.520 ,7,1,0.,12.0,0.,12.0,0.,12.0,0.,12.0
1979-07-11 21:46:03.520 ,7,0,0.,12.0,0.,12.0,0.,12.0,0.,12.0
1979-07-11 21:46:15.520 ,7,0,0.,12.0,0.,12.0,0.,12.0,0.,12.0
1979-07-11 21:46:27.520 ,6,1,0.,12.0,0.,12.0,0.,12.0,0.,12.0
1979-07-11 21:46:39.520 ,6,1,3.,12.0,0.,12.0,0.,12.0,0.,12.0
1979-07-11 21:46:51.520 ,6,0,5.,12.0,0.,12.0,0.,12.0,0.,12.0
1979-07-11 21:47:03.520 ,6,0,4.,12.0,0.,12.0,0.,12.0,0.,12.0
1979-07-11 21:47:15.520 ,5,1,1.,12.0,0.,12.0,0.,12.0,0.,12.0
1979-07-11 21:47:27.520 ,5,1,4.,12.0,0.,12.0,0.,12.0,1.,12.0
1979-07-11 21:47:39.520 ,5,0,3.,12.0,0.,12.0,0.,12.0,2.,12.0
1979-07-11 21:47:51.520 ,5,0,4.,12.0,0.,12.0,0.,12.0,0.,12.0
1979-07-11 21:48:03.520 ,4,1,4.,12.0,0.,12.0,0.,12.0,2.,12.0
1979-07-11 21:48:15.520 ,4,1,5.,12.0,0.,12.0,0.,12.0,1.,12.0
1979-07-11 21:48:27.520 ,4,0,5.,12.0,0.,12.0,0.,12.0,0.,12.0
1979-07-11 21:48:39.520 ,4,0,9.,12.0,0.,12.0,0.,12.0,2.,12.0
1979-07-11 21:48:51.520 ,3,1,2.,12.0,0.,12.0,0.,12.0,3.,12.0
1979-07-11 21:49:03.520 ,3,1,3.,12.0,0.,12.0,0.,12.0,0.,12.0
1979-07-11 21:49:15.520 ,3,0,1.,12.0,0.,12.0,0.,12.0,1.,12.0
1979-07-11 21:49:27.520 ,3,0,5.,12.0,0.,12.0,0.,12.0,0.,12.0
1979-07-11 21:49:39.520 ,2,1,1.,12.0,0.,12.0,0.,12.0,1.,12.0
1979-07-11 21:49:51.520 ,2,1,6.,12.0,0.,12.0,0.,12.0,2.,12.0
1979-07-11 21:50:03.520 ,2,0,1.,12.0,0.,12.0,0.,12.0,0.,12.0
1979-07-11 21:50:15.520 ,2,0,2.,12.0,0.,12.0,0.,12.0,0.,12.0
1979-07-11 21:50:27.520 ,1,1,2.,12.0,0.,12.0,0.,12.0,1.,12.0
1979-07-11 21:50:39.520 ,1,1,0.,12.0,0.,12.0,0.,12.0,0.,12.0
1979-07-11 21:50:51.520 ,1,0,2.,12.0,0.,12.0,0.,12.0,0.,12.0
1979-07-11 21:51:03.520 ,1,0,4.,12.0,0.,12.0,0.,12.0,1.,12.0
1979-07-11 21:51:15.520 ,0,1,0.,12.0,0.,12.0,0.,12.0,0.,12.0
1979-07-11 21:51:27.520 ,0,1,2.,12.0,0.,12.0,0.,12.0,0.,12.0
1979-07-11 21:51:39.520 ,0,0,2.,12.0,0.,12.0,0.,12.0,0.,12.0
1979-07-11 21:51:51.520 ,0,0,0.,12.0,0.,12.0,0.,12.0,0.,12.0
1979-07-11 21:52:03.520 ,0,1,2.,12.0,0.,12.0,0.,12.0,0.,12.0
1979-07-11 21:52:15.520 ,0,1,4.,12.0,0.,12.0,0.,12.0,1.,12.0
1979-07-11 21:52:27.520 ,0,0,3.,12.0,0.,12.0,0.,12.0,2.,12.0
1979-07-11 21:52:39.520 ,0,0,6.,12.0,0.,12.0,0.,12.0,0.,12.0
1979-07-11 21:52:51.520 ,1,1,1.,12.0,0.,12.0,0.,12.0,0.,12.0
1979-07-11 21:53:03.520 ,1,1,3.,12.0,0.,12.0,0.,12.0,0.,12.0
1979-07-11 21:53:15.520 ,1,0,0.,12.0,0.,12.0,0.,12.0,0.,12.0
1979-07-11 21:53:27.520 ,1,0,1.,12.0,0.,12.0,0.,12.0,0.,12.0
1979-07-11 21:53:39.520 ,2,1,0.,12.0,0.,12.0,0.,12.0,0.,12.0
1979-07-11 21:53:51.520 ,2,1,1.,12.0,0.,12.0,0.,12.0,1.,12.0
1979-07-11 21:54:03.520 ,2,0,2.,12.0,0.,12.0,0.,12.0,1.,12.0
1979-07-11 21:54:15.520 ,2,0,1.,12.0,0.,12.0,0.,12.0,1.,12.0
1979-07-11 21:54:27.520 ,3,1,1.,12.0,0.,12.0,0.,12.0,1.,12.0
1979-07-11 21:54:39.520 ,3,1,1.,12.0,0.,12.0,0.,12.0,1.,12.0
1979-07-11 21:54:51.520 ,3,0,3.,12.0,0.,12.0,0.,12.0,0.,12.0
1979-07-11 21:55:03.520 ,3,0,1.,12.0,0.,12.0,0.,12.0,1.,12.0
1979-07-11 21:55:15.520 ,4,1,0.,12.0,0.,12.0,0.,12.0,0.,12.0
1979-07-11 21:55:27.520 ,4,1,3.,12.0,0.,12.0,0.,12.0,1.,12.0
1979-07-11 21:55:39.520 ,4,0,3.,12.0,0.,12.0,0.,12.0,1.,12.0
1979-07-11 21:55:51.520 ,4,0,3.,12.0,0.,12.0,0.,12.0,0.,12.0
1979-07-11 21:56:03.520 ,5,1,0.,12.0,0.,12.0,0.,12.0,2.,12.0
1979-07-11 21:56:15.520 ,5,1,3.,12.0,0.,12.0,0.,12.0,0.,12.0
1979-07-11 21:56:27.520 ,5,0,2.,12.0,0.,12.0,0.,12.0,0.,12.0
1979-07-11 21:56:39.520 ,5,0,2.,12.0,0.,12.0,0.,12.0,1.,12.0
1979-07-11 21:56:51.520 ,6,1,2.,12.0,0.,12.0,0.,12.0,0.,12.0
1979-07-11 21:57:03.520 ,6,1,3.,12.0,0.,12.0,0.,12.0,0.,12.0
1979-07-11 21:57:15.520 ,6,0,1.,12.0,0.,12.0,0.,12.0,1.,12.0
1979-07-11 21:57:27.520 ,6,0,6.,12.0,0.,12.0,0.,12.0,0.,12.0
1979-07-11 21:57:39.520 ,7,1,0.,12.0,0.,12.0,0.,12.0,2.,12.0
1979-07-11 21:57:51.520 ,7,1,0.,12.0,0.,12.0,0.,12.0,0.,12.0
1979-07-11 21:58:03.520 ,7,0,0.,12.0,0.,12.0,0.,12.0,0.,12.0
1979-07-11 21:58:15.520 ,7,0,0.,12.0,0.,12.0,0.,12.0,0.,12.0
1979-07-11 21:58:27.520 ,7,1,0.,12.0,0.,12.0,0.,12.0,0.,12.0
1979-07-11 21:58:39.520 ,7,1,0.,12.0,0.,12.0,0.,12.0,0.,12.0
1979-07-11 21:58:51.520 ,7,0,0.,12.0,0.,12.0,0.,12.0,0.,12.0
1979-07-11 21:59:03.520 ,7,0,0.,12.0,0.,12.0,0.,12.0,0.,12.0
1979-07-11 21:59:15.520 ,6,1,0.,12.0,0.,12.0,0.,12.0,0.,12.0
1979-07-11 21:59:27.520 ,6,1,1.,12.0,0.,12.0,0.,12.0,1.,12.0
1979-07-11 21:59:39.520 ,6,0,2.,12.0,0.,12.0,0.,12.0,0.,12.0
1979-07-11 21:59:51.520 ,6,0,3.,12.0,0.,12.0,0.,12.0,0.,12.0
1979-07-11 22:00:03.520 ,5,1,2.,12.0,0.,12.0,0.,12.0,0.,12.0
1979-07-11 22:00:15.520 ,5,1,1.,12.0,0.,12.0,0.,12.0,1.,12.0
1979-07-11 22:00:27.520 ,5,0,1.,12.0,0.,12.0,0.,12.0,0.,12.0
1979-07-11 22:00:39.520 ,5,0,4.,12.0,0.,12.0,0.,12.0,0.,12.0
1979-07-11 22:00:51.520 ,4,1,3.,12.0,0.,12.0,0.,12.0,0.,12.0
1979-07-11 22:01:03.520 ,4,1,3.,12.0,0.,12.0,0.,12.0,1.,12.0
1979-07-11 22:01:15.520 ,4,0,1.,12.0,0.,12.0,0.,12.0,0.,12.0
1979-07-11 22:01:27.520 ,4,0,4.,12.0,0.,12.0,0.,12.0,0.,12.0
1979-07-11 21:00:27.520 ,0,0,6.,12.0,0.,12.0,0.,12.0,1.,12.0
1979-07-11 21:00:39.520 ,0,0,12.,12.0,0.,12.0,0.,12.0,3.,12.0
1979-07-11 21:00:51.520 ,0,1,7.,12.0,0.,12.0,0.,12.0,0.,12.0
1979-07-11 21:01:03.520 ,0,1,12.,12.0,0.,12.0,0.,12.0,1.,12.0
1979-07-11 21:01:15.520 ,0,0,15.,12.0,0.,12.0,0.,12.0,1.,12.0
1979-07-11 21:01:27.520 ,0,0,8.,12.0,0.,12.0,0.,12.0,3.,12.0
1979-07-11 21:01:39.520 ,1,1,6.,12.0,0.,12.0,0.,12.0,1.,12.0
1979-07-11 21:01:51.520 ,1,1,11.,12.0,0.,12.0,0.,12.0,2.,12.0
1979-07-11 21:02:03.520 ,1,0,8.,12.0,0.,12.0,0.,12.0,0.,12.0
1979-07-11 21:02:15.520 ,1,0,9.,12.0,0.,12.0,0.,12.0,2.,12.0
1979-07-11 21:02:27.520 ,2,1,12.,12.0,0.,12.0,0.,12.0,2.,12.0
1979-07-11 21:02:39.520 ,2,1,9.,12.0,0.,12.0,0.,12.0,2.,12.0
1979-07-11 21:02:51.520 ,2,0,17.,12.0,0.,12.0,0.,12.0,7.,12.0
1979-07-11 21:03:03.520 ,2,0,20.,12.0,0.,12.0,0.,12.0,2.,12.0
1979-07-11 21:03:15.520 ,3,1,8.,12.0,0.,12.0,0.,12.0,1.,12.0
1979-07-11 21:03:27.520 ,3,1,21.,12.0,0.,12.0,0.,12.0,5.,12.0
1979-07-11 21:03:39.520 ,3,0,23.,12.0,0.,12.0,0.,12.0,3.,12.0
1979-07-11 21:03:51.520 ,3,0,15.,12.0,0.,12.0,0.,12.0,0.,12.0
1979-07-11 21:04:03.520 ,4,1,17.,12.0,0.,12.0,0.,12.0,4.,12.0
1979-07-11 21:04:15.520 ,4,1,19.,12.0,0.,12.0,0.,12.0,4.,12.0
1979-07-11 21:04:27.520 ,4,0,23.,12.0,0.,12.0,0.,12.0,4.,12.0
1979-07-11 21:04:39.520 ,4,0,17.,12.0,0.,12.0,0.,12.0,4.,12.0
1979-07-11 21:04:51.520 ,5,1,19.,12.0,0.,12.0,0.,12.0,4.,12.0
1979-07-11 21:05:03.520 ,5,1,15.,12.0,0.,12.0,0.,12.0,3.,12.0
1979-07-11 21:05:15.520 ,5,0,16.,12.0,0.,12.0,0.,12.0,6.,12.0
1979-07-11 21:05:27.520 ,5,0,25.,12.0,0.,12.0,0.,12.0,4.,12.0
1979-07-11 21:05:39.520 ,6,1,18.,12.0,0.,12.0,0.,12.0,3.,12.0
1979-07-11 21:05:51.520 ,6,1,26.,12.0,0.,12.0,0.,12.0,7.,12.0
1979-07-11 21:06:03.520 ,6,0,9.,12.0,0.,12.0,0.,12.0,5.,12.0
1979-07-11 21:06:15.520 ,6,0,11.,12.0,0.,12.0,0.,12.0,4.,12.0
1979-07-11 21:06:27.520 ,7,1,18.,12.0,0.,12.0,0.,12.0,1.,12.0
1979-07-11 21:06:39.520 ,7,1,2.,12.0,0.,12.0,0.,12.0,1.,12.0
1979-07-11 21:06:51.520 ,7,0,0.,12.0,0.,12.0,0.,12.0,0.,12.0
1979-07-11 21:07:03.520 ,7,0,0.,12.0,1.,12.0,0.,12.0,0.,12.0
1979-07-11 21:07:15.520 ,7,1,0.,12.0,0.,12.0,0.,12.0,0.,12.0
1979-07-11 21:07:27.520 ,7,1,0.,12.0,0.,12.0,0.,12.0,0.,12.0
1979-07-11 21:07:39.520 ,7,0,0.,12.0,0.,12.0,0.,12.0,0.,12.0
1979-07-11 21:07:51.520 ,7,0,0.,12.0,0.,12.0,0.,12.0,0.,12.0
1979-07-11 21:08:03.520 ,6,1,0.,12.0,0.,12.0,0.,12.0,0.,12.0
1979-07-11 21:08:15.520 ,6,1,18.,12.0,0.,12.0,0.,12.0,3.,12.0
1979-07-11 21:08:27.520 ,6,0,14.,12.0,0.,12.0,0.,12.0,4.,12.0
1979-07-11 21:08:39.520 ,6,0,16.,12.0,0.,12.0,0.,12.0,4.,12.0
1979-07-11 21:08:51.520 ,5,1,23.,12.0,0.,12.0,0.,12.0,1.,12.0
1979-07-11 21:09:03.520 ,5,1,16.,12.0,0.,12.0,0.,12.0,1.,12.0
1979-07-11 21:09:15.520 ,5,0,20.,12.0,0.,12.0,0.,12.0,3.,12.0
1979-07-11 21:09:27.520 ,5,0,13.,12.0,0.,12.0,0.,12.0,3.,12.0
1979-07-11 21:09:39.520 ,4,1,19.,12.0,0.,12.0,0.,12.0,2.,12.0
1979-07-11 21:09:51.520 ,4,1,19.,12.0,0.,12.0,0.,12.0,2.,12.0
1979-07-11 21:10:03.520 ,4,0,17.,12.0,0.,12.0,0.,12.0,6.,12.0
1979-07-11 21:10:15.520 ,4,0,31.,12.0,0.,12.0,0.,12.0,4.,12.0
1979-07-11 21:10:27.520 ,3,1,18.,12.0,0.,12.0,0.,12.0,3.,12.0
1979-07-11 21:10:39.520 ,3,1,21.,12.0,0.,12.0,0.,12.0,4.,12.0
1979-07-11 21:10:51.520 ,3,0,17.,12.0,0.,12.0,0.,12.0,4.,12.0
1979-07-11 21:11:03.520 ,3,0,19.,12.0,0.,12.0,0.,12.0,3.,12.0
1979-07-11 21:11:15.520 ,2,1,19.,12.0,0.,12.0,0.,12.0,3.,12.0
1979-07-11 21:11:27.520 ,2,1,13.,12.0,0.,12.0,0.,12.0,3.,12.0
1979-07-11 21:11:39.520 ,2,0,21.,12.0,0.,12.0,0.,12.0,4.,12.0
1979-07-11 21:11:51.520 ,2,0,9.,12.0,0.,12.0,0.,12.0,1.,12.0
1979-07-11 21:12:03.520 ,1,1,8.,12.0,0.,12.0,0.,12.0,1.,12.0
1979-07-11 21:12:15.520 ,1,1,14.,12.0,0.,12.0,0.,12.0,2.,12.0
1979-07-11 21:12:27.520 ,1,0,14.,12.0,0.,12.0,0.,12.0,5.,12.0
1979-07-11 21:12:39.520 ,1,0,6.,12.0,0.,12.0,0.,12.0,2.,12.0
1979-07-11 21:12:51.520 ,0,1,11.,12.0,0.,12.0,0.,12.0,3.,12.0
1979-07-11 21:13:03.520 ,0,1,13.,12.0,0.,12.0,0.,12.0,1.,12.0
1979-07-11 21:13:15.520 ,0,0,9.,12.0,0.,12.0,0.,12.0,5.,12.0
1979-07-11 21:13:27.520 ,0,0,16.,12.0,0.,12.0,0.,12.0,0.,12.0
1979-07-11 21:13:39.520 ,0,1,12.,12.0,0.,12.0,0.,12.0,0.,12.0
1979-07-11 21:13:51.520 ,0,1,7.,12.0,0.,12.0,0.,12.0,1.,12.0
1979-07-11 21:14:03.520 ,0,0,17.,12.0,0.,12.0,0.,12.0,1.,12.0
1979-07-11 21:14:15.520 ,0,0,6.,12.0,0.,12.0,0.,12.0,0.,12.0
1979-07-11 21:14:27.520 ,1,1,12.,12.0,0.,12.0,0.,12.0,0.,12.0
1979-07-11 21:14:39.520 ,1,1,15.,12.0,0.,12.0,0.,12.0,2.,12.0
1979-07-11 21:14:51.520 ,1,0,9.,12.0,0.,12.0,0.,12.0,1.,12.0
1979-07-11 21:15:03.520 ,1,0,7.,12.0,0.,12.0,0.,12.0,2.,12.0
1979-07-11 21:15:15.520 ,2,1,7.,12.0,0.,12.0,0.,12.0,0.,12.0
1979-07-11 21:15:27.520 ,2,1,8.,12.0,0.,12.0,0.,12.0,5.,12.0
1979-07-11 21:15:39.520 ,2,0,9.,12.0,0.,12.0,0.,12.0,2.,12.0